This demonstration page uses our WeatherBlox Daily Observations layout. Learn more.

Left ArrowRight Arrow

34.74481, -87.66753

Hourly Observations for December 30, 2019

Temp ( °F °C ) Dew Point ( °F °C ) Humidity (%) Winds ( mph kmh ) Pressure ( in mb ) Visibility ( mi km ) Precip ( " mm )
12:53 am 00:53 Clear 51 10.6 46 7.8 83 83 W 13 20 29.79 1009 10 16 0.00 0.00
1:49 am 01:49 Cloudy 52 11 46 8 82 82 WSW 15 24 29.83 1010 10 16 0.00 0.00
1:53 am 01:53 Cloudy 51 10.6 46 7.8 83 83 W 13 20 29.81 1010 10 16 0.00 0.00
2:26 am 02:26 Mostly Cloudy 51 10.6 44 6.7 77 77 W 13 20 29.84 1010 10 16 0.00 0.00
2:53 am 02:53 Cloudy 51 10.6 44 6.7 77 77 WSW 12 19 29.83 1010 10 16 0.00 0.00
3:53 am 03:53 Clear 49 9.4 42 5.6 77 77 W 16 26 29.84 1010 10 16 0.00 0.00
4:19 am 04:19 Mostly Cloudy 48 8.9 39 3.9 71 71 W 21 33 29.87 1012 10 16 0.00 0.00
4:53 am 04:53 Mostly Clear 45 7.2 34 1.1 66 66 W 17 28 29.88 1012 10 16 0.00 0.00
5:53 am 05:53 Clear 43 6.1 33 0.6 68 68 W 10 17 29.91 1013 10 16 0.00 0.00
6:53 am 06:53 Clear 41 5 33 0.6 73 73 WSW 6 9 29.92 1013 10 16 0.00 0.00
7:53 am 07:53 Sunny 44 6.7 35 1.7 71 71 WSW 9 15 29.93 1014 10 16 0.00 0.00
8:53 am 08:53 Sunny 46 7.8 36 2.2 68 68 WSW 15 24 29.95 1014 10 16 0.00 0.00
9:53 am 09:53 Partly Cloudy 47 8.3 35 1.7 63 63 WSW 13 20 29.97 1015 10 16 0.00 0.00
10:02 am 10:02 Mostly Cloudy 48 8.9 36 2.2 63 63 WSW 15 24 29.99 1016 10 16 0.00 0.00
10:24 am 10:24 Partly Cloudy 48 8.9 36 2.2 63 63 W 10 17 29.98 1015 10 16 0.00 0.00
10:53 am 10:53 Sunny 49 9.4 36 2.2 61 61 WSW 14 22 29.95 1014 10 16 0.00 0.00
11:53 am 11:53 Sunny 52 11.1 37 2.8 57 57 W 14 22 29.93 1014 10 16 0.00 0.00
12:53 pm 12:53 Sunny 53 11.7 35 1.7 51 51 W 15 24 29.91 1013 10 16 0.00 0.00
1:53 pm 13:53 Sunny 55 12.8 35 1.7 47 47 W 15 24 29.89 1012 10 16 0.00 0.00
2:53 pm 14:53 Sunny 54 12.2 33 0.6 45 45 WSW 15 24 29.91 1013 10 16 0.00 0.00
3:53 pm 15:53 Sunny 53 11.7 31 -0.6 43 43 W 14 22 29.91 1013 10 16 0.00 0.00
4:53 pm 16:53 Clear 50 10 32 0 50 50 WSW 13 20 29.93 1014 10 16 0.00 0.00
5:53 pm 17:53 Clear 47 8.3 33 0.6 59 59 WSW 9 15 29.94 1014 10 16 0.00 0.00
6:53 pm 18:53 Clear 46 7.8 34 1.1 63 63 WSW 8 13 29.96 1015 10 16 0.00 0.00
7:53 pm 19:53 Clear 45 7.2 33 0.6 63 63 W 8 13 29.98 1015 10 16 0.00 0.00
8:53 pm 20:53 Clear 45 7.2 33 0.6 63 63 W 10 17 29.99 1016 10 16 0.00 0.00
9:53 pm 21:53 Clear 44 6.7 34 1.1 68 68 WSW 9 15 30.00 1016 10 16 0.00 0.00
10:53 pm 22:53 Clear 44 6.7 34 1.1 68 68 W 14 22 30.00 1016 10 16 0.00 0.00
11:53 pm 23:53 Clear 44 6.7 32 0 63 63 W 14 22 29.99 1016 10 16 0.00 0.00

Powered by AerisWeather